Location: Clanezzo
(45.7500°N, 9.6000°E)
Time: 02:20:06
(UTC+00:00)

Cosmos 1048 Rocket - Pass Details

Date: 12 May 2021
Orbit: 743 x 791 km, 74.0° (Epoch: 18 June)

Event Time Altitude Azimuth Distance (km) Brightness Sun altitude
Rises 23:21:44 0° 334° (NNW) 3,279 8.3 -25.9°
Reaches altitude 10° 23:24:11 10° 330° (NNW) 2,340 7.2 -25.9°
Enters shadow 23:29:10 52° 262° (W) 953 4.3 -25.8°
